Location: Boitzum
(52.1496°N, 9.6943°E)
Time: 22:33:28
(UTC+00:00)

CORIOLIS - Pass Details

Date: 13 January 2026
Orbit: 816 x 835 km, 98.7° (Epoch: 7 February)

Event Time Altitude Azimuth Distance (km) Brightness Sun altitude
Rises 06:16:12 0° 13° (NNE) 3,398 7.3 -10.0°
Reaches altitude 10° 06:18:35 10° 11° (NNE) 2,460 6.5 -9.7°
Maximum altitude 06:24:00 68° 290° (WNW) 904 4.2 -8.9°
Drops below altitude 10° 06:29:22 10° 209° (SSW) 2,441 6.6 -8.2°
Sets 06:31:43 0° 207° (SSW) 3,370 7.3 -7.9°
